User: anonymous   Login
Location: Brno
(49.2000°N, 16.6330°E)
Time: 17:00:15
(UTC+01:00)
Language:

Cosmos 1459 Rocket - Orbit

View from above orbital plane
View from above orbital plane
View from above satellite
View from above satellite

Ground track
Ground track

The orbit data is extracted from the following two-line orbital elements,

1 14059U 83042B   17081.68827768 +.00000101 +00000-0 +83731-4 0  9993
2 14059 082.9702 126.1487 0043515 148.1455 212.2348 13.78579506703579
Epoch (UTC): 22 March 2017 16:31:07
Eccentricity: 0.0043515
inclination: 82.9702°
perigee height: 937 km
apogee height: 1001 km
right ascension of ascending node: 126.1487°
argument of perigee: 148.1455°
revolutions per day: 13.78579506
mean anomaly at epoch: 212.2348°
orbit number at epoch: 70357

The dashed part of the orbit path shows where the satellite is in the earth's shadow,  

DLR